SCP
-0 -0 -0 -0 -0 -0 -0 -0 -0 -0 -0 -0 -0 -0 0 0 -0 -0 -0 -0 -0 -0 -0 0 -0 -0 -0 -0 -0 -0 -0 -0
-0 -0 -0 -0 -0 -0 -0 -0 -0 -0 -0 -0 -0 -0 -0 -0 -0 -0 -0 -0 -0 -0 -0 -0 0 -0 -0 -0 -0 -0 0 0
-0 -0 -0 -0 -0 -0 -0 -0 -0 -0 -0 -0 -0 -0 0 -0 -0 -0 -0 -0 -0 -0 -0 -0 -0 0 0 0 0 0 0 0
-0 -0 0 -0 -0 -0 -0 -0 -0 -0 -0 -0 -0 0 0 0 0 0 0 0 -0 -0 -0 0 0 0 0 0 0 0 0 0
-0 -0 -0 -0 -0 -0 -0 -0 -0 -0 -0 -0 -0 -0 0 0 0 0 0 0 0 0 0 0 0 0 0 0 0 0 0 0
-0 -0 -0 -0 -0 -0 -0 -0 -0 -0 -0 -0 -0 0 0 0 0 0 0 0 0 0 0 0 0 0 0 0 0 0 0 0
-0 -0 -0 -0 -0 -0 -0 -0 -0 -0 -0 -0 0 0 0 0 0 0 0 0 0 0 0 0 0 0 0 0 0 0 0 0
-0 -0 -0 -0 -0 -0 -0 -0 0 0 0 0 0 0 0 0 0 0 0 0 0 0 0 0 0 0 0 0 0 0 0 0
0 -0 -0 -0 -0 -0 -0 0 0 0 0 0 0 0 0 0 0 0 0 0 0 0 0 0 0 0 0 0 0 0 0 0
0 -0 -0 -0 -0 -0 -0 0 0 0 -0 0 0 0 0 0 0 0 0 0 0 0 0 0 0 0 0 0 0 0 0 0
-0 -0 -0 -0 0 0 0 -0 -0 -0 -0 0 0 0 0 0 0 0 0 0 0 0 0 0 0 0 0 0 0 0 0 1
-0 -0 -0 -0 -0 -0 -0 0 0 0 0 0 0 0 0 0 0 0 0 0 0 0 0 0 0 0 0 0 0 1 1 1
0 -0 -0 0 0 0 0 0 0 0 0 0 0 0 0 0 0 0 0 0 0 0 1 1 1 1 1 1 0 1 1 1
0 0 0 0 0 0 0 0 0 0 0 0 0 0 0 0 0 0 0 1 1 1 1 1 1 0 0 0 0 0 0 0
0 0 0 0 0 0 0 0 0 0 0 0 1 0 1 0 0 1 1 0 0 0 0 0 0 0 0 0 0 0 0 0
0 0 0 0 -0 0 0 1 1 1 1 0 0 0 1 1 0 1 0 0 0 0 0 0 0 0 0 0 0 0 0 0
0 0 0 -0 -0 0 1 1 1 1 1 0 0 0 0 1 1 1 0 0 0 0 0 0 0 0 0 0 0 0 0 0
1 0 0 0 -0 0 0 2 1 1 0 0 0 0 0 0 0 0 0 0 0 0 0 0 0 0 0 0 0 0 0 0
1 1 0 0 0 0 0 1 1 1 1 1 0 0 0 0 0 0 0 0 0 0 0 0 0 0 0 0 0 0 0 0
Wind_Speed_500mb
47 43 36 31 27 24 24 26 26 26 25 26 26 27 27 27 27 27 25 24 21 20 18 16 15 15 14 13 14 16 18 20
47 42 36 31 27 24 23 24 24 24 24 25 25 25 26 25 25 24 23 22 18 15 14 13 10 10 11 11 12 13 16 18
43 41 36 32 28 26 24 23 22 22 22 23 24 24 24 24 23 21 19 18 16 13 11 9 8 7 8 10 12 14 17 19
41 39 36 33 30 28 25 22 21 21 20 20 20 21 21 21 20 20 17 16 15 13 11 9 5 3 6 9 12 14 15 18
44 40 37 35 32 30 27 25 22 20 19 18 18 18 18 18 18 17 16 13 12 11 9 6 4 1 4 7 11 15 18 19
46 43 40 38 35 32 29 27 25 21 20 19 18 17 16 16 15 14 12 12 10 8 6 5 4 6 8 10 13 15 19 21
48 46 43 39 37 36 34 31 27 25 22 19 17 16 15 14 12 11 11 11 9 7 6 7 10 14 14 15 17 20 22 24
45 46 44 42 40 39 36 33 29 27 24 21 19 17 15 12 10 10 9 10 10 10 8 9 12 13 16 16 19 23 25 28
45 42 42 42 42 39 35 33 29 26 23 19 16 16 14 12 12 12 12 13 12 13 16 18 19 19 21 24 26 27 26 27
42 39 40 40 39 38 36 32 29 25 19 16 17 16 14 14 14 13 14 17 17 17 16 20 24 26 28 32 34 36 35 35
44 40 36 35 35 36 35 32 27 25 19 17 17 14 13 13 14 12 14 19 23 22 20 21 23 28 31 34 35 38 37 37
53 42 37 33 35 36 37 34 32 30 24 21 21 20 18 17 18 17 22 22 24 24 26 26 27 32 35 36 38 39 41 41
57 53 46 43 40 39 38 36 35 36 32 28 27 28 26 25 27 29 29 31 34 29 28 29 34 37 35 33 35 37 39 39
60 59 57 53 52 47 44 41 37 39 38 37 34 34 32 33 35 35 32 34 38 36 35 32 36 37 33 33 35 38 35 33
65 61 62 61 59 55 51 47 46 45 41 38 39 40 43 37 29 31 37 32 27 27 29 33 30 29 35 32 31 31 30 31
70 68 65 66 69 65 62 61 54 50 44 41 37 21 22 30 30 35 34 27 18 17 20 19 22 28 30 29 30 29 22 15
75 74 71 72 73 73 64 65 64 56 48 41 36 29 28 29 31 27 23 18 16 16 19 22 28 28 24 24 19 20 11 12
75 77 74 72 71 74 67 70 67 57 48 44 40 38 38 32 26 20 13 13 17 17 14 14 16 12 10 14 16 11 11 8
70 66 61 60 65 71 70 71 67 65 58 50 44 35 30 22 19 17 14 12 11 7 4 1 3 6 6 7 9 10 8 12
Wind_Direction_500mb
165 164 162 158 155 154 147 144 139 135 130 125 122 122 120 117 114 112 110 108 107 102 95 86 79 75 69 58 45 40 32 30
168 168 166 161 161 158 154 151 146 141 134 128 128 129 128 125 120 117 116 113 109 102 91 81 67 55 47 43 32 18 8 1
174 172 169 166 168 165 164 160 154 146 141 135 137 139 136 131 126 124 122 121 119 114 104 86 62 40 24 19 16 8 1 347
179 178 175 175 175 174 171 168 165 158 153 147 146 147 145 141 138 135 135 133 133 130 128 120 98 27 27 5 5 3 357 349
183 184 183 182 182 183 179 178 177 172 166 164 160 159 159 159 155 153 153 153 152 147 147 147 136 317 339 349 343 338 336 334
189 191 188 188 188 189 189 187 186 186 183 182 179 177 176 178 176 175 176 179 179 173 190 215 243 282 300 314 318 323 326 328
192 195 194 192 192 194 195 196 194 197 200 196 197 195 195 197 193 200 212 214 208 227 231 254 261 273 287 298 303 306 311 310
193 198 196 196 197 198 200 200 202 206 209 207 209 210 211 214 220 225 233 228 237 245 245 279 274 279 282 290 292 299 300 307
196 201 201 202 202 202 204 206 208 210 216 218 222 227 231 235 239 241 238 235 244 257 259 269 277 274 277 288 293 293 303 300
199 202 206 207 211 208 201 205 209 213 218 225 229 238 245 248 246 246 240 234 239 247 260 269 277 281 285 289 293 296 297 297
201 199 202 206 209 212 210 207 205 210 215 220 221 226 224 227 235 245 253 243 246 258 272 276 284 291 292 295 296 297 297 298
209 205 205 203 205 207 212 207 202 205 214 216 215 219 222 230 245 251 260 265 266 267 275 286 291 293 296 295 297 298 298 299
216 213 213 216 213 209 208 209 205 209 215 222 227 231 233 236 247 258 270 277 271 271 274 275 285 288 288 293 293 297 296 299
231 223 221 223 224 219 214 212 213 216 221 229 236 244 253 253 254 258 268 273 272 274 273 280 290 289 289 298 296 300 300 303
241 236 234 233 233 227 223 216 214 218 227 234 244 249 251 263 262 273 277 278 282 274 273 286 307 315 314 307 311 309 306 302
244 241 237 233 233 228 223 218 220 223 229 242 259 272 263 264 274 280 282 291 288 283 304 299 312 318 314 309 315 319 316 308
243 245 242 238 233 228 225 223 223 226 227 241 248 271 274 273 271 266 274 278 283 294 300 306 317 307 309 320 331 337 333 332
236 243 243 241 232 224 224 221 221 223 224 228 235 242 247 249 253 239 233 258 258 261 261 274 287 288 315 327 338 357 330 324
241 243 239 233 226 219 223 222 223 225 222 228 233 233 228 227 216 220 228 241 227 215 215 284 329 319 325 332 340 348 344 321
Wind_Speed_850mb
47 43 36 31 27 24 24 26 26 26 25 26 26 27 27 27 27 27 25 24 21 20 18 16 15 15 14 13 14 16 18 20
47 42 36 31 27 24 23 24 24 24 24 25 25 25 26 25 25 24 23 22 18 15 14 13 10 10 11 11 12 13 16 18
43 41 36 32 28 26 24 23 22 22 22 23 24 24 24 24 23 21 19 18 16 13 11 9 8 7 8 10 12 14 17 19
41 39 36 33 30 28 25 22 21 21 20 20 20 21 21 21 20 20 17 16 15 13 11 9 5 3 6 9 12 14 15 18
44 40 37 35 32 30 27 25 22 20 19 18 18 18 18 18 18 17 16 13 12 11 9 6 4 1 4 7 11 15 18 19
46 43 40 38 35 32 29 27 25 21 20 19 18 17 16 16 15 14 12 12 10 8 6 5 4 6 8 10 13 15 19 21
48 46 43 39 37 36 34 31 27 25 22 19 17 16 15 14 12 11 11 11 9 7 6 7 10 14 14 15 17 20 22 24
45 46 44 42 40 39 36 33 29 27 24 21 19 17 15 12 10 10 9 10 10 10 8 9 12 13 16 16 19 23 25 28
45 42 42 42 42 39 35 33 29 26 23 19 16 16 14 12 12 12 12 13 12 13 16 18 19 19 21 24 26 27 26 27
42 39 40 40 39 38 36 32 29 25 19 16 17 16 14 14 14 13 14 17 17 17 16 20 24 26 28 32 34 36 35 35
44 40 36 35 35 36 35 32 27 25 19 17 17 14 13 13 14 12 14 19 23 22 20 21 23 28 31 34 35 38 37 37
53 42 37 33 35 36 37 34 32 30 24 21 21 20 18 17 18 17 22 22 24 24 26 26 27 32 35 36 38 39 41 41
57 53 46 43 40 39 38 36 35 36 32 28 27 28 26 25 27 29 29 31 34 29 28 29 34 37 35 33 35 37 39 39
60 59 57 53 52 47 44 41 37 39 38 37 34 34 32 33 35 35 32 34 38 36 35 32 36 37 33 33 35 38 35 33
65 61 62 61 59 55 51 47 46 45 41 38 39 40 43 37 29 31 37 32 27 27 29 33 30 29 35 32 31 31 30 31
70 68 65 66 69 65 62 61 54 50 44 41 37 21 22 30 30 35 34 27 18 17 20 19 22 28 30 29 30 29 22 15
75 74 71 72 73 73 64 65 64 56 48 41 36 29 28 29 31 27 23 18 16 16 19 22 28 28 24 24 19 20 11 12
75 77 74 72 71 74 67 70 67 57 48 44 40 38 38 32 26 20 13 13 17 17 14 14 16 12 10 14 16 11 11 8
70 66 61 60 65 71 70 71 67 65 58 50 44 35 30 22 19 17 14 12 11 7 4 1 3 6 6 7 9 10 8 12
Wind_Direction_850mb
165 164 162 158 155 154 147 144 139 135 130 125 122 122 120 117 114 112 110 108 107 102 95 86 79 75 69 58 45 40 32 30
168 168 166 161 161 158 154 151 146 141 134 128 128 129 128 125 120 117 116 113 109 102 91 81 67 55 47 43 32 18 8 1
174 172 169 166 168 165 164 160 154 146 141 135 137 139 136 131 126 124 122 121 119 114 104 86 62 40 24 19 16 8 1 347
179 178 175 175 175 174 171 168 165 158 153 147 146 147 145 141 138 135 135 133 133 130 128 120 98 27 27 5 5 3 357 349
183 184 183 182 182 183 179 178 177 172 166 164 160 159 159 159 155 153 153 153 152 147 147 147 136 317 339 349 343 338 336 334
189 191 188 188 188 189 189 187 186 186 183 182 179 177 176 178 176 175 176 179 179 173 190 215 243 282 300 314 318 323 326 328
192 195 194 192 192 194 195 196 194 197 200 196 197 195 195 197 193 200 212 214 208 227 231 254 261 273 287 298 303 306 311 310
193 198 196 196 197 198 200 200 202 206 209 207 209 210 211 214 220 225 233 228 237 245 245 279 274 279 282 290 292 299 300 307
196 201 201 202 202 202 204 206 208 210 216 218 222 227 231 235 239 241 238 235 244 257 259 269 277 274 277 288 293 293 303 300
199 202 206 207 211 208 201 205 209 213 218 225 229 238 245 248 246 246 240 234 239 247 260 269 277 281 285 289 293 296 297 297
201 199 202 206 209 212 210 207 205 210 215 220 221 226 224 227 235 245 253 243 246 258 272 276 284 291 292 295 296 297 297 298
209 205 205 203 205 207 212 207 202 205 214 216 215 219 222 230 245 251 260 265 266 267 275 286 291 293 296 295 297 298 298 299
216 213 213 216 213 209 208 209 205 209 215 222 227 231 233 236 247 258 270 277 271 271 274 275 285 288 288 293 293 297 296 299
231 223 221 223 224 219 214 212 213 216 221 229 236 244 253 253 254 258 268 273 272 274 273 280 290 289 289 298 296 300 300 303
241 236 234 233 233 227 223 216 214 218 227 234 244 249 251 263 262 273 277 278 282 274 273 286 307 315 314 307 311 309 306 302
244 241 237 233 233 228 223 218 220 223 229 242 259 272 263 264 274 280 282 291 288 283 304 299 312 318 314 309 315 319 316 308
243 245 242 238 233 228 225 223 223 226 227 241 248 271 274 273 271 266 274 278 283 294 300 306 317 307 309 320 331 337 333 332
236 243 243 241 232 224 224 221 221 223 224 228 235 242 247 249 253 239 233 258 258 261 261 274 287 288 315 327 338 357 330 324
241 243 239 233 226 219 223 222 223 225 222 228 233 233 228 227 216 220 228 241 227 215 215 284 329 319 325 332 340 348 344 321